Retour au catalogue

KHAYYAM

ActifScienceSSO
NORAD 53370·PAYLOAD·🇮🇷 Iran

Lancé Aug 9, 2022 depuis Baikonur Cosmodrome

Loading…

Prochains Passages (prochaines 24 heures)

TLE

FraisSource: Space-Track

Époque: Sep 14, 2026, 15:13 UTC

1 53370U 22096A   26257.63464666  .00004057  00000-0  16728-3 0  9993
2 53370  97.3331 160.1648 0002683  85.5031 274.6513 15.24620493228223

Suivez KHAYYAM en temps réel avec AllMySat

Download on the App Store